EHI
0 0 0 0 0 0 1 2 3 5 6 7 8 11 15 19 21 16 9 5 4 2 1 0 0 0 0 0 0 0 0 0 0 0 0 0 0 0 0 0 0 0 0
0 0 0 0 0 0 0 1 2 4 5 5 8 12 14 17 18 15 11 8 5 3 1 0 0 0 0 0 0 0 0 0 0 0 0 0 0 0 0 0 0 0 0
0 0 0 0 0 0 0 0 1 2 3 3 6 10 12 15 17 17 14 10 7 5 2 0 0 0 0 0 0 0 0 0 0 0 0 0 0 0 0 0 0 0 0
0 0 0 0 0 0 0 0 0 1 1 2 4 8 11 14 18 19 16 11 6 3 1 0 0 0 0 0 0 0 0 0 0 0 0 0 0 0 0 0 0 0 0
0 0 0 0 0 0 0 0 0 0 0 0 3 7 10 12 16 18 14 9 4 2 1 0 0 0 0 0 0 0 0 0 0 0 0 0 0 0 0 0 0 0 0
0 0 0 0 0 0 0 0 0 0 0 0 1 5 7 8 10 12 10 6 3 2 1 0 0 0 0 0 0 0 0 0 0 0 0 0 0 0 0 0 0 0 0
0 0 0 0 0 0 0 0 0 0 0 0 0 2 3 3 5 7 7 5 2 1 1 0 0 0 0 0 0 0 0 0 0 0 0 0 0 0 0 0 0 0 0
0 0 0 0 0 0 0 0 0 0 0 0 0 0 0 1 2 3 4 2 1 0 0 0 0 0 0 0 0 0 0 0 0 0 0 0 0 0 0 0 0 0 0
0 0 0 0 0 0 0 0 0 0 0 0 0 0 0 0 1 1 1 0 0 0 0 0 0 0 0 0 0 0 0 0 0 1 0 0 0 0 0 0 0 0 0
0 0 0 0 0 0 0 0 0 0 0 0 0 0 0 0 0 0 0 0 0 0 0 0 0 0 0 0 0 0 0 0 0 0 0 0 0 0 0 0 0 0 0
0 0 0 0 0 0 0 0 0 0 0 0 0 0 0 0 0 0 0 0 0 0 0 0 0 0 0 0 0 0 0 0 0 0 0 0 0 0 0 0 0 0 0
0 0 0 0 0 0 0 0 0 0 0 0 0 0 0 0 0 0 0 0 0 0 0 0 0 0 0 0 0 0 0 0 0 0 0 0 0 0 0 0 0 0 0
0 0 0 0 0 0 0 0 0 0 0 0 0 0 0 0 0 0 0 0 0 0 0 0 0 0 0 0 0 0 0 0 0 0 0 0 0 0 0 0 0 0 0
0 0 0 0 0 0 0 0 0 0 0 0 0 0 0 0 0 0 0 0 0 0 0 0 0 0 0 0 0 0 0 0 0 0 0 0 0 0 0 0 0 0 0
0 0 0 0 0 0 0 0 0 0 0 0 0 0 0 0 0 0 0 0 0 0 0 0 0 0 0 0 0 0 0 0 0 0 0 0 0 0 0 0 0 0 0
0 0 0 0 0 0 0 0 0 0 0 0 0 0 0 0 0 0 0 0 0 0 0 0 0 0 0 0 0 0 0 0 0 0 0 0 0 0 0 0 0 0 0
0 0 0 0 0 0 0 0 0 0 0 0 0 0 0 0 0 0 0 0 0 0 0 0 0 0 0 0 0 0 0 0 0 0 0 0 0 0 0 0 0 0 0
0 0 0 0 0 0 0 0 0 0 0 0 0 0 0 0 0 0 0 0 0 0 0 0 0 0 0 0 0 0 0 0 0 0 0 0 0 0 0 0 0 0 0
0 0 0 0 0 0 0 0 0 0 0 0 0 0 0 0 0 0 0 0 0 0 0 0 0 0 0 0 0 0 0 0 0 0 0 0 0 0 0 0 0 0 0
0 0 0 0 0 0 0 0 0 0 0 0 0 0 0 0 0 0 0 0 0 0 0 0 0 0 0 0 0 0 0 0 0 0 0 0 0 0 0 0 0 0 0
0 0 0 0 0 0 0 0 0 0 0 0 0 0 0 0 0 0 0 0 0 0 0 0 0 0 0 0 0 0 0 0 0 0 0 0 0 0 0 0 0 0 0
0 0 0 0 0 0 0 0 0 0 0 0 0 0 0 0 0 0 0 0 0 0 0 0 0 0 0 0 0 0 0 0 0 0 0 0 0 0 0 0 0 0 0
0 0 0 0 0 0 0 0 0 0 0 0 0 0 0 0 0 0 0 0 0 0 0 0 0 0 0 0 0 0 0 0 0 0 0 0 0 0 0 0 0 0 0
0 0 0 0 0 0 0 0 0 0 0 0 0 0 0 0 0 0 0 0 0 0 0 0 0 0 0 0 0 0 0 0 0 0 0 0 0 0 0 0 0 0 0
0 0 0 0 0 0 0 0 0 0 0 0 0 0 0 0 0 0 0 0 0 0 0 0 0 0 0 0 0 0 0 0 0 0 0 0 0 0 0 0 0 0 0
0 0 0 0 0 0 0 0 0 0 0 0 0 0 0 0 0 0 0 0 0 0 0 0 0 0 0 0 0 0 0 0 0 0 0 0 0 0 0 0 0 0 0
Wind_Speed
12 12 13 13 12 11 10 9 10 9 6 3 1 3 4 4 5 5 5 5 5 6 6 5 5 4 4 4 4 3 3 2 2 3 2 2 1 2 3 3 4 5 6
15 15 14 14 13 11 10 9 8 8 7 4 3 2 2 2 2 3 4 5 5 5 6 6 5 5 4 4 4 3 3 2 2 3 2 1 3 3 2 2 4 5 5
14 15 14 12 12 12 11 9 9 9 8 7 3 1 1 1 2 2 3 4 5 5 5 5 5 5 5 5 4 4 5 3 1 2 4 3 4 2 3 2 2 4 4
14 14 14 13 12 11 10 9 8 8 8 6 3 1 2 4 4 4 3 3 4 4 5 5 5 5 4 4 5 4 4 4 3 2 2 3 4 3 2 2 1 2 4
14 14 13 11 11 10 10 9 9 9 8 7 4 2 2 2 2 3 5 4 3 4 4 5 4 4 4 4 4 3 3 3 4 3 2 2 2 2 2 2 2 2 2
14 13 11 11 10 10 9 9 9 9 9 7 6 3 1 2 4 5 5 4 3 2 3 4 4 4 4 4 4 4 4 4 4 3 3 3 3 3 3 3 3 2 3
12 12 12 12 11 11 10 9 9 9 9 8 7 6 3 2 2 3 3 3 2 2 2 2 2 3 3 3 3 3 3 4 4 4 4 4 4 3 3 3 3 2 2
12 11 11 10 10 10 10 9 8 8 8 8 7 7 5 3 2 3 2 2 2 2 2 2 2 2 2 3 3 2 3 3 4 5 4 3 4 4 4 4 4 2 2
12 12 11 9 9 9 9 9 9 8 8 8 7 6 6 5 4 4 3 2 1 1 2 2 2 2 2 2 2 2 3 3 4 3 4 3 3 3 3 3 4 4 3
11 12 10 10 9 8 8 8 8 8 7 7 7 6 6 6 5 4 4 2 1 1 2 1 1 2 2 3 3 3 3 4 3 3 3 3 2 2 3 3 3 3 4
9 9 9 9 9 9 8 8 8 8 8 8 7 7 7 7 6 5 4 3 2 2 1 0 1 1 1 1 2 2 3 3 3 3 3 3 3 2 2 2 2 3 3
8 7 7 8 8 8 8 8 8 8 7 7 7 7 7 7 7 6 5 5 4 3 3 2 2 2 2 1 1 1 2 3 3 3 3 3 2 2 2 2 2 2 3
7 6 6 6 6 7 7 7 8 7 7 7 7 7 8 8 8 7 7 6 5 5 4 4 4 3 3 2 1 2 2 1 1 2 3 3 3 2 2 2 2 1 1
6 6 6 6 6 5 5 6 7 7 7 7 8 9 8 8 8 8 8 7 6 6 6 5 4 4 4 3 3 2 2 2 1 1 2 3 4 4 3 2 2 2 2
6 7 6 6 5 5 6 6 6 6 7 7 8 8 8 8 8 8 8 8 7 7 6 6 5 4 4 4 4 2 2 2 2 2 1 2 3 5 4 3 2 3 2
6 7 7 6 5 5 4 5 5 5 6 7 7 7 7 8 8 8 8 8 7 7 7 7 6 7 6 8 7 3 2 2 3 2 1 1 2 3 4 5 5 5 3
5 6 6 5 4 3 3 4 4 4 6 6 6 6 6 7 7 7 7 7 6 6 6 6 6 5 6 10 8 6 3 3 2 2 2 2 2 3 2 3 3 3 3
5 5 5 4 3 2 3 3 4 4 5 5 5 6 6 6 6 6 7 6 5 5 5 6 6 5 8 12 10 8 4 4 3 3 3 3 2 1 3 3 3 2 1
3 3 3 2 2 2 1 3 4 4 4 5 5 5 5 6 6 7 6 5 5 5 5 5 6 6 8 13 12 8 4 4 4 4 3 3 3 3 4 4 4 3 2
3 3 3 3 2 2 1 3 2 3 3 3 3 3 4 5 6 6 5 5 4 5 5 6 6 7 7 13 13 8 3 4 4 4 4 5 5 5 5 4 4 3 1
3 3 4 3 2 2 1 2 1 1 1 2 3 4 4 4 5 5 5 5 5 6 6 6 6 7 9 11 14 10 4 3 4 4 3 3 6 7 7 5 3 2 3
4 4 4 4 3 2 1 0 2 1 1 3 4 4 5 5 5 6 6 6 6 6 6 6 6 6 7 10 11 13 9 6 5 4 3 3 8 9 9 6 7 8 6
3 3 3 4 4 3 1 1 2 0 4 4 3 3 4 5 5 5 6 5 5 5 5 5 6 6 6 8 14 13 12 10 5 4 8 9 10 9 8 11 11 8 5
3 3 3 4 4 4 3 3 1 2 5 4 3 2 3 4 5 4 4 4 5 5 5 5 5 5 5 6 6 6 6 7 7 6 8 11 12 9 8 8 7 5 4
3 3 3 4 5 4 3 2 1 4 4 4 3 2 2 3 3 3 3 3 3 3 3 3 3 4 5 6 8 5 4 4 4 4 5 6 5 6 6 5 5 5 5
2 3 4 4 4 3 2 2 1 3 4 3 3 2 2 2 2 2 2 4 4 6 7 5 4 3 5 8 10 12 12 11 9 7 5 5 5 5 5 5 5 5 5
Wind_Direction
7 10 10 8 8 9 7 4 357 348 344 329 268 213 200 190 187 184 179 177 170 168 164 164 159 151 152 160 151 133 124 119 123 94 40 340 315 250 214 190 182 193 196
3 3 4 3 0 359 357 357 351 342 334 317 287 238 200 178 178 171 163 167 166 165 173 163 160 158 149 151 151 141 134 138 140 129 115 341 328 308 262 199 191 196 193
357 354 354 354 353 353 351 349 342 337 329 322 313 321 103 118 141 163 172 177 166 164 164 165 157 164 161 167 169 159 152 158 175 157 148 162 222 283 309 261 210 191 195
352 349 348 348 348 345 343 343 340 337 333 331 332 302 218 202 192 176 167 162 158 152 154 165 162 167 169 174 181 172 164 153 167 186 191 172 162 170 283 317 297 218 202
346 344 344 343 343 343 343 341 341 343 340 339 331 307 248 213 168 151 152 155 151 148 156 160 162 169 169 178 180 169 170 165 170 177 178 180 178 162 168 255 296 300 249
340 340 343 344 345 345 345 345 346 347 348 350 350 341 286 165 154 163 164 162 148 145 168 165 171 170 166 174 180 186 188 190 187 189 183 173 173 187 181 205 232 252 267
340 343 347 349 351 349 349 347 349 350 354 1 4 2 13 92 129 142 154 145 142 145 181 159 159 161 167 182 182 189 202 199 198 203 204 199 197 173 169 181 206 232 272
345 346 348 349 349 350 349 352 353 353 360 7 9 15 24 49 69 85 106 122 136 155 158 141 138 159 184 194 192 195 208 206 214 220 211 200 201 183 173 171 166 189 269
350 349 350 352 349 349 351 355 1 3 5 7 11 21 23 36 54 66 77 93 111 143 144 150 155 194 201 203 204 212 213 201 207 206 200 193 191 181 182 174 169 165 195
348 353 353 354 354 355 357 1 7 8 6 10 18 27 26 32 40 49 46 46 53 80 124 159 201 224 219 203 196 202 206 190 191 185 178 178 182 181 176 179 178 169 171
336 344 347 351 357 1 4 8 7 12 15 15 18 25 26 28 35 38 30 26 29 57 88 161 221 234 224 210 185 193 189 175 174 174 172 177 169 163 169 167 161 168 165
328 335 338 345 355 1 6 12 14 18 15 13 19 23 23 26 30 26 22 23 29 33 35 35 45 43 44 52 105 179 160 158 163 161 156 169 155 155 166 162 171 177 177
329 336 338 340 347 354 3 10 13 17 16 16 19 24 23 23 23 20 20 23 28 32 34 44 53 51 50 51 56 90 98 98 130 153 159 165 152 161 163 163 174 178 170
339 343 345 347 349 356 5 12 13 15 21 23 26 29 25 23 22 23 25 26 34 38 39 49 55 53 48 42 34 50 69 60 56 113 163 168 169 170 161 153 158 144 125
354 351 352 354 358 9 13 18 17 16 20 29 32 28 24 26 28 28 29 32 37 40 40 50 47 46 51 41 37 38 61 69 72 67 103 157 168 167 160 150 146 133 120
352 351 356 4 7 13 17 23 21 17 25 34 31 26 28 31 29 25 27 33 33 34 44 48 46 43 39 34 39 43 60 79 96 103 98 123 126 128 125 134 140 141 137
344 346 348 354 4 13 30 36 23 23 32 34 28 24 27 29 24 25 29 28 26 33 39 37 38 37 24 28 33 42 65 70 82 105 123 113 89 90 99 108 107 93 114
343 342 342 349 357 18 33 42 35 33 36 33 27 24 26 26 19 22 23 20 19 28 33 33 29 26 22 28 34 45 58 69 72 81 99 102 88 90 130 121 106 87 60
327 324 332 339 8 27 46 58 38 32 37 33 28 25 28 27 23 21 14 12 24 32 35 34 31 28 16 25 34 49 60 70 64 64 74 85 85 87 122 118 113 89 38
332 335 346 4 7 358 69 67 38 33 34 32 32 32 36 36 28 20 17 17 30 36 38 38 31 28 21 22 32 46 63 70 64 57 52 56 71 83 101 111 119 116 81
332 342 355 352 307 294 104 66 13 358 14 57 49 40 36 41 34 28 25 27 33 38 39 37 28 26 22 20 27 38 59 74 75 63 46 39 63 76 85 94 104 124 123
331 341 349 335 312 293 147 132 295 286 105 87 67 50 39 40 40 39 31 28 31 37 32 31 27 21 18 19 24 39 56 72 80 68 45 52 71 71 69 71 78 88 90
324 331 340 336 326 310 248 242 279 155 120 109 94 69 56 45 40 43 37 30 27 34 32 32 28 15 11 14 24 36 49 57 68 65 65 67 67 66 61 59 65 67 69
323 334 348 347 331 313 291 263 285 118 123 126 126 104 81 59 45 41 40 42 33 32 32 31 26 14 12 12 10 19 35 47 57 58 61 63 62 59 54 49 47 49 58
318 334 342 329 319 315 309 308 116 118 124 134 141 128 111 98 72 55 41 40 27 23 36 27 20 21 17 4 23 41 40 44 64 69 56 51 49 50 46 43 42 42 47
319 337 338 331 322 327 317 331 91 130 136 141 152 154 144 131 115 98 50 26 32 33 42 42 40 19 26 35 52 54 54 56 71 73 63 57 54 54 50 48 42 38 39